Theta_e
330 320 315 314 310 309 311 300 295 294 286 286 283 286 291 290 291 291 292 292 293 294 295 293 294 297 298 295 296 294 294 292 291 287 294 295 303 309 317 324 319 326 331 335 339 340 344 346 351 353 354 354 354 353 352 352 351 350 349 348 347 347 347 349 348 348 347 348 346 346 347 348 348 347 348 348 348 348 348 348 348 349 349 349 347 346 348 347 346 345 343 343 341 340 340 339 339
321 316 314 313 312 309 303 295 289 282 283 283 287 284 286 288 291 290 293 293 294 299 294 293 294 295 294 294 294 296 296 296 296 298 301 302 306 310 314 322 324 328 331 335 339 340 342 344 348 352 354 354 353 352 352 352 351 350 349 348 347 347 348 348 348 348 347 347 346 347 348 348 348 347 347 347 348 348 348 348 348 348 348 348 346 347 347 346 344 344 343 342 341 340 339 338 338
318 317 314 310 308 304 299 296 294 279 281 282 282 285 287 290 290 290 290 292 293 294 291 292 294 296 297 297 297 297 294 298 296 297 303 307 309 308 316 322 326 328 332 336 338 339 342 343 344 351 353 353 353 352 352 351 350 350 349 348 347 347 348 348 348 348 346 347 347 348 348 348 347 348 347 347 347 348 347 348 347 348 347 346 347 347 345 346 344 343 342 341 339 338 338 337 337
314 315 312 305 306 298 295 287 284 280 283 279 282 286 288 290 289 289 290 292 292 291 294 297 299 298 298 294 298 297 295 298 298 302 302 310 307 307 319 324 324 329 331 335 338 339 341 343 344 350 353 353 352 353 352 352 350 350 349 348 347 348 348 348 348 348 347 348 348 348 348 348 348 348 348 347 347 347 347 347 347 347 346 346 346 344 345 344 343 343 342 340 339 336 335 335 334
313 315 307 303 298 298 290 287 285 281 283 282 287 287 287 288 290 288 290 289 290 291 294 297 295 297 299 299 297 298 299 299 301 303 306 307 308 309 320 326 327 330 332 334 337 339 340 342 343 348 352 353 352 352 352 351 351 350 349 348 347 348 348 347 348 347 347 347 347 348 348 348 347 348 347 347 347 347 347 347 347 346 345 344 345 344 344 342 341 340 340 338 337 335 333 332 332
309 309 307 303 303 297 291 289 288 287 286 285 288 291 290 287 290 292 291 291 292 293 295 294 297 297 297 298 297 300 296 302 303 308 307 312 313 314 321 327 329 329 330 333 336 338 339 341 342 347 353 353 352 352 352 352 351 350 349 348 347 348 348 348 348 347 347 347 347 347 348 348 347 347 348 346 346 347 347 347 346 346 346 344 343 343 342 341 339 339 338 337 336 333 332 330 329
310 303 301 302 298 295 289 283 287 284 292 288 292 288 288 289 289 291 293 294 297 295 293 298 294 296 295 294 298 299 299 306 308 309 308 310 312 319 327 330 328 328 329 333 335 337 338 341 344 348 350 351 352 352 352 352 351 350 349 348 348 347 348 348 348 348 348 347 347 348 348 348 347 347 347 347 346 346 346 346 346 346 345 344 343 341 340 340 339 338 337 337 335 332 330 329 328
309 304 298 293 291 288 286 282 285 284 291 288 291 290 290 290 287 292 291 293 294 296 295 293 294 296 296 295 296 298 297 304 308 309 312 312 312 319 328 331 329 327 329 330 333 335 337 340 343 347 349 351 351 351 352 351 351 350 349 348 348 347 348 347 348 348 348 348 347 347 348 348 347 347 347 346 346 346 346 346 345 345 344 343 341 340 340 339 338 337 338 336 334 331 329 328 326
304 301 296 295 288 285 283 288 288 287 288 290 291 291 299 297 289 293 292 292 293 293 292 296 295 294 292 294 295 296 298 302 305 310 312 315 316 319 324 325 327 329 332 333 331 333 334 337 341 346 347 350 350 351 352 351 351 350 349 348 348 348 347 348 348 348 348 348 348 348 348 348 348 347 347 346 346 345 346 345 345 343 342 342 341 339 339 338 337 337 337 336 333 330 328 326 325
302 299 292 290 288 288 281 284 287 290 290 290 289 292 289 291 291 293 293 293 295 293 294 293 295 297 295 296 295 301 305 302 307 314 312 314 315 318 322 322 323 329 332 335 335 336 335 334 339 343 345 348 350 351 351 351 351 350 349 349 348 348 348 348 348 349 348 348 348 348 348 348 347 347 346 346 345 345 345 345 344 342 341 340 340 339 337 336 337 337 337 335 332 329 327 325 324
298 294 293 288 280 281 284 284 282 287 287 289 289 291 292 290 293 292 291 292 291 293 292 294 297 295 295 297 295 299 300 298 310 311 314 314 315 316 322 321 324 328 332 334 336 336 335 335 334 339 342 344 347 349 350 349 350 350 349 349 348 348 348 348 348 348 348 348 349 348 348 348 347 347 346 346 345 344 344 344 343 342 341 340 339 338 337 338 337 336 336 333 331 328 325 324 321
297 291 289 281 282 282 281 284 284 287 290 287 296 293 292 292 291 294 293 294 291 291 293 295 296 294 295 292 296 299 297 299 304 311 310 312 313 313 317 313 318 323 328 332 334 336 333 332 334 335 337 340 342 345 346 347 348 349 349 349 348 348 347 348 348 348 348 348 349 349 348 347 347 346 345 345 344 344 344 344 343 342 341 340 338 337 335 335 336 336 334 330 329 327 325 322 322
294 288 286 283 286 285 284 284 284 289 286 287 295 295 291 293 295 293 291 291 289 291 295 294 297 297 294 295 295 292 299 300 300 304 306 308 314 312 312 312 315 321 323 328 333 334 333 332 333 335 335 334 336 338 340 343 345 346 347 348 347 347 347 347 347 347 347 347 348 347 347 346 345 346 346 345 344 344 343 344 343 341 339 337 336 335 335 334 335 334 331 329 328 326 324 323 321
294 289 290 288 282 282 283 285 284 289 285 291 289 290 291 294 292 292 290 294 290 294 294 295 297 296 296 292 290 287 292 298 301 305 306 310 310 311 313 311 313 318 321 327 332 334 334 334 335 337 338 338 339 335 333 337 340 344 345 345 344 344 345 346 345 345 345 345 344 342 342 341 342 343 344 344 343 342 343 343 342 340 339 336 335 334 334 333 334 332 329 328 327 325 323 322 321
300 290 284 284 282 283 283 288 288 284 289 290 294 291 291 294 292 288 294 292 293 292 294 296 298 296 292 294 291 292 296 297 301 306 308 310 310 309 310 312 313 313 318 323 328 331 333 335 337 339 338 341 341 340 337 338 334 337 340 341 341 342 342 341 341 341 340 340 340 338 337 335 335 336 337 338 341 338 337 334 337 340 337 335 334 334 333 332 332 330 328 327 326 324 323 321 319
295 290 285 286 282 283 284 287 283 286 290 289 293 288 291 292 292 295 294 295 295 296 295 299 298 298 294 295 296 297 296 301 304 306 311 311 307 311 306 311 313 311 313 323 327 329 331 334 336 338 340 341 341 341 340 341 334 332 336 338 338 339 338 338 338 338 334 333 334 332 331 332 331 333 329 333 332 335 331 329 332 338 338 335 334 334 333 332 331 329 328 326 325 323 322 318 316
295 290 288 280 284 283 284 287 286 288 286 287 288 290 292 292 290 291 293 293 296 294 291 294 298 296 295 295 297 296 301 306 308 308 310 311 305 309 308 310 310 312 315 323 327 329 329 332 334 337 338 340 341 341 342 342 341 331 332 332 333 334 335 334 335 332 328 327 327 326 325 335 335 332 330 333 326 332 323 324 330 336 338 336 336 334 332 331 330 329 327 326 324 323 318 316 315
292 285 282 283 280 284 285 289 288 292 291 292 291 289 292 290 290 294 294 295 288 289 292 292 293 293 295 294 297 298 302 305 304 307 305 306 305 308 308 307 307 313 311 314 322 328 330 331 333 336 337 339 340 341 342 342 341 335 339 340 337 335 332 329 332 332 327 328 325 328 331 333 334 331 331 329 328 328 324 322 326 331 335 334 333 335 333 331 330 328 327 326 324 319 313 294 293
287 284 284 284 281 286 290 289 290 291 292 290 291 288 290 292 292 293 294 290 288 293 294 292 293 293 294 294 293 293 301 303 304 304 305 305 304 306 307 307 308 310 313 312 313 322 330 332 333 334 335 337 339 340 341 341 341 339 339 340 338 334 333 331 333 331 328 329 328 330 329 333 333 332 331 328 326 322 324 321 324 328 331 331 330 332 334 331 329 328 327 325 321 313 294 290 287
291 289 287 284 286 288 289 290 292 291 293 293 292 291 290 292 293 293 294 290 289 292 294 292 292 294 293 293 292 293 296 299 301 303 303 303 304 305 305 306 308 309 311 312 315 313 324 331 333 333 334 336 338 339 340 341 341 340 339 339 338 338 338 335 335 334 333 331 331 331 331 332 332 330 325 322 323 325 323 319 322 323 326 326 324 326 329 330 329 328 326 321 308 297 290 289 288
294 290 287 288 288 292 293 290 293 292 291 293 291 290 291 294 291 293 292 294 294 293 292 295 295 294 294 293 293 292 293 294 295 297 298 300 300 302 303 305 306 308 310 311 311 314 319 327 331 333 333 335 336 337 338 339 340 339 341 339 336 336 337 337 335 335 334 332 331 331 332 330 331 329 326 325 325 323 322 322 322 322 322 322 320 319 315 316 315 307 307 301 294 294 291 289 287
293 292 290 290 289 292 293 291 291 291 289 292 289 292 295 292 293 290 292 291 293 295 296 292 294 294 293 293 292 294 295 295 295 296 295 296 296 296 297 298 299 301 304 306 309 313 314 321 329 332 333 334 335 336 337 338 338 338 338 340 337 335 336 334 334 335 333 333 331 331 329 328 329 328 324 323 321 322 321 320 320 320 319 318 317 316 311 309 306 304 302 298 293 291 290 289 289
293 289 291 290 289 294 294 291 290 291 291 292 291 293 291 291 292 291 292 293 295 295 295 295 293 293 292 295 295 295 295 295 295 295 296 296 296 297 297 298 298 298 298 300 304 309 314 315 322 330 332 333 334 336 337 337 337 337 338 336 338 335 333 335 336 332 332 331 332 330 327 326 324 324 325 323 321 320 321 319 319 317 316 315 313 316 310 306 305 303 300 296 293 292 291 289 288
294 291 290 293 291 294 293 295 293 292 292 292 291 290 291 290 292 290 290 295 295 294 293 291 293 296 297 295 295 295 295 295 295 295 296 296 296 297 297 298 299 299 298 300 301 303 309 313 317 325 330 332 333 335 336 336 336 336 337 335 336 332 332 330 331 333 333 332 328 327 328 328 326 323 323 323 321 319 319 318 317 316 316 314 311 313 311 304 302 300 299 294 295 293 293 291 289
294 292 291 292 290 291 291 289 289 289 290 291 290 290 293 291 291 290 294 294 294 292 292 293 295 295 295 295 295 294 294 295 295 295 296 296 296 297 298 298 299 300 302 303 303 302 305 311 313 319 327 331 332 334 334 335 335 335 334 334 334 331 336 334 329 329 330 331 329 327 326 325 323 324 321 321 319 319 316 314 313 315 314 313 312 310 311 308 303 300 300 297 293 293 292 292 291
292 292 290 288 290 290 290 290 290 290 290 290 291 291 292 290 290 291 293 292 292 291 293 293 295 294 294 294 294 294 294 294 294 294 295 296 296 296 297 297 298 299 301 304 305 305 304 307 311 316 322 328 332 333 334 334 333 333 333 331 332 332 331 331 331 329 327 325 324 326 325 327 326 324 321 319 318 315 314 314 313 313 314 312 312 313 309 309 307 302 300 297 294 293 293 291 291
291 290 289 290 292 290 290 290 292 289 290 288 291 292 290 290 291 289 289 291 291 293 293 293 294 293 293 293 293 293 293 293 293 294 294 295 295 295 296 297 297 299 301 303 306 307 306 306 309 311 316 322 328 331 331 332 331 332 331 331 330 330 329 327 325 325 326 326 324 323 321 322 321 320 320 317 316 315 314 314 312 310 312 312 311 312 308 309 307 308 305 300 296 293 293 290 291
290 291 290 289 288 288 289 289 290 291 292 288 291 289 289 289 290 289 291 290 291 292 292 293 293 292 292 292 292 293 293 293 294 293 292 293 293 294 295 295 296 298 300 302 305 308 310 310 309 311 314 317 323 327 327 330 329 330 328 330 329 327 325 326 324 323 322 322 320 320 319 318 317 319 318 319 318 317 316 316 315 314 314 312 311 310 308 307 307 304 302 298 296 295 293 290 290
291 290 291 288 288 291 291 290 289 290 291 287 289 289 290 289 288 290 290 289 291 292 292 292 292 291 291 291 292 292 292 293 293 292 292 293 294 294 294 296 296 297 300 301 303 307 309 311 312 311 313 316 320 323 325 325 326 327 327 328 326 327 327 325 324 322 323 322 320 320 320 319 316 317 317 316 314 316 316 315 314 313 314 313 310 309 308 305 305 303 300 295 294 294 296 294 292
291 287 287 290 287 289 290 289 288 290 291 286 290 285 286 287 290 290 290 289 289 292 292 292 291 291 291 290 291 291 292 292 292 292 292 293 293 294 294 295 297 297 298 300 302 304 307 310 312 312 313 314 317 320 321 322 322 323 324 326 326 327 328 328 325 324 322 319 316 315 315 316 315 315 315 314 316 315 313 314 313 313 312 309 308 307 307 304 304 302 298 297 299 297 296 293 292
291 288 287 285 284 283 289 289 289 291 289 287 291 286 284 287 289 290 290 289 289 290 291 290 290 290 290 290 290 290 291 291 292 292 292 293 293 294 294 295 295 296 297 298 300 301 304 307 310 312 312 313 314 315 316 316 317 318 319 319 319 320 320 320 320 320 319 318 317 316 315 314 313 314 313 313 311 311 310 310 311 311 307 306 307 305 307 304 303 301 297 298 294 294 292 291 292
284 287 283 279 284 285 288 291 289 291 291 288 291 284 287 291 290 290 292 289 291 290 290 289 289 289 289 289 289 290 290 291 291 292 292 292 293 293 293 294 295 295 296 296 298 300 301 302 306 309 311 313 313 313 314 315 316 316 316 313 315 316 316 315 316 317 317 317 316 316 315 314 314 313 312 312 311 311 311 311 311 307 306 306 306 305 305 305 302 300 298 299 298 297 293 294 289
280 285 281 282 281 282 287 291 287 289 289 289 289 285 283 290 288 290 290 290 291 289 288 288 288 288 289 289 289 289 290 290 291 291 291 292 292 293 293 293 294 294 295 295 296 298 299 300 301 304 307 311 313 314 314 314 315 314 314 314 314 313 313 313 313 314 314 314 315 315 314 313 313 313 312 312 313 312 311 310 307 307 305 306 303 302 303 302 303 302 298 297 300 299 294 293 292
282 281 282 282 283 283 284 288 290 288 290 289 288 286 286 290 289 290 291 289 290 289 288 288 288 288 288 288 288 288 288 288 289 290 290 291 292 292 293 294 293 294 295 295 295 296 297 298 298 300 303 307 310 312 313 313 313 313 313 312 311 311 310 311 311 310 310 311 312 311 312 311 311 311 311 311 311 309 309 309 307 306 306 305 304 302 301 300 301 302 301 295 295 297 294 292 294
281 282 282 284 282 282 286 284 288 289 289 289 287 286 288 290 290 290 290 290 289 288 288 287 287 287 288 288 288 288 288 288 288 289 290 290 291 291 292 292 293 293 293 294 294 295 295 296 297 297 298 301 305 308 309 310 310 309 309 308 308 308 308 307 307 306 306 307 308 309 309 308 307 308 309 309 309 308 308 307 305 305 305 305 304 303 301 300 299 299 300 298 292 292 293 291 290
286 283 282 281 284 285 283 286 287 289 288 288 286 287 290 291 288 289 290 289 288 288 288 288 287 287 287 287 287 287 287 287 289 289 289 290 290 290 291 292 292 292 292 293 293 293 294 294 295 296 297 298 301 303 304 303 303 303 303 303 302 303 303 302 302 302 301 301 302 304 305 305 305 305 306 307 307 306 306 305 304 303 303 304 303 302 301 300 300 299 298 297 296 292 290 288 286
285 283 283 283 283 285 286 287 288 288 288 286 287 286 286 288 287 288 289 289 288 287 287 287 287 287 286 286 286 286 287 286 288 288 288 288 289 290 290 291 291 291 292 292 292 292 292 292 293 293 295 296 297 298 298 299 299 299 299 298 298 298 298 298 298 298 297 297 297 299 299 300 301 301 302 303 303 303 303 303 303 302 302 303 302 301 300 299 297 297 295 294 296 294 293 288 288
287 286 284 284 283 284 288 288 288 288 288 284 283 285 287 288 286 287 288 288 286 286 286 286 286 286 286 286 286 286 286 287 287 287 287 287 288 288 289 289 290 289 290 291 290 291 291 292 292 292 293 294 294 295 296 296 296 296 296 295 295 295 295 294 294 294 294 294 294 294 295 295 296 297 298 300 300 300 300 300 300 301 301 300 299 298 296 295 295 294 295 293 292 294 294 291 290
284 285 284 283 285 284 286 288 286 287 288 286 283 285 288 287 286 287 287 286 286 286 286 286 286 285 285 285 285 285 285 285 286 286 286 286 286 287 288 288 288 288 289 289 290 290 291 291 291 291 292 292 292 294 294 294 294 294 294 293 294 292 293 293 292 292 292 291 291 291 291 292 292 292 293 294 295 296 297 297 297 297 298 299 299 297 295 293 292 293 293 295 293 290 291 290 290
284 283 283 284 284 286 284 285 285 287 286 286 284 285 289 285 286 286 287 286 285 286 286 285 286 285 284 285 284 284 284 284 284 284 284 285 285 286 286 286 287 287 287 288 289 289 290 290 290 290 291 291 292 292 293 293 294 293 293 293 293 293 291 292 292 291 291 291 289 290 290 290 290 290 290 291 292 292 292 293 293 294 294 295 295 295 294 293 292 290 291 291 291 291 291 290 290
283 285 284 284 284 284 287 286 285 285 286 283 285 284 283 286 286 284 285 286 286 285 285 285 286 285 285 285 285 284 283 283 283 283 284 284 284 284 284 285 286 286 286 286 287 288 289 289 289 290 290 290 291 292 292 292 292 292 292 292 292 291 291 290 289 288 288 289 288 288 288 288 289 289 289 289 290 290 290 291 291 292 292 291 292 292 292 291 291 290 291 290 290 291 290 289 288
281 283 287 288 287 286 284 284 286 283 281 282 283 279 276 278 282 284 284 284 284 284 283 283 284 284 284 284 283 284 284 283 282 282 282 283 283 283 284 284 284 285 285 286 286 287 287 288 289 289 290 290 290 290 291 291 290 290 289 289 287 287 285 286 285 285 285 285 285 286 286 286 287 287 287 288 289 289 289 289 290 290 290 290 290 291 290 290 290 290 290 290 289 290 290 288 286
285 287 286 289 287 285 284 284 285 279 279 284 282 281 276 279 282 282 282 282 282 283 282 283 283 283 283 283 283 282 282 282 283 282 282 282 282 283 283 283 283 284 284 285 285 285 286 287 287 288 288 288 289 289 290 290 289 288 287 286 286 285 284 284 285 285 284 284 285 285 285 285 286 285 286 286 286 287 288 288 288 289 289 289 289 290 289 288 289 289 289 289 288 290 287 286 286
284 285 283 285 285 285 283 283 284 280 280 282 283 282 281 281 281 282 282 282 281 282 283 283 284 283 283 282 282 282 282 281 281 281 281 281 281 281 281 282 282 283 283 284 284 284 285 285 285 286 287 287 287 287 288 288 287 286 285 285 285 284 283 283 283 284 284 285 284 284 284 285 285 285 285 285 285 286 286 286 287 287 287 288 288 288 288 288 289 289 288 287 288 288 287 286 286
284 285 282 283 284 282 282 283 281 281 281 279 279 283 280 276 278 281 282 281 280 281 281 282 283 283 282 282 282 281 281 281 281 280 280 281 281 281 281 281 282 282 282 282 283 283 284 284 284 285 285 285 285 286 286 286 286 285 284 284 283 284 283 283 283 284 284 284 283 284 284 284 284 285 285 285 285 285 285 285 285 285 286 286 287 287 287 287 287 287 287 287 287 287 286 286 286
286 283 283 282 281 281 280 279 283 278 279 276 280 282 277 280 279 281 281 281 280 281 282 283 283 282 282 282 282 282 281 281 281 280 280 280 280 280 281 281 281 281 281 283 282 283 283 283 284 283 283 284 284 284 285 285 285 285 284 283 282 282 283 283 283 283 283 283 283 283 283 283 283 284 284 284 285 285 285 284 284 284 284 285 286 285 286 286 286 287 286 286 286 286 286 286 287
284 283 285 283 280 279 278 278 277 277 274 277 281 282 283 277 279 280 280 281 281 282 281 282 282 282 282 282 282 281 281 281 280 280 280 280 280 280 280 280 280 280 280 281 281 282 282 282 282 282 282 283 284 284 284 284 284 284 283 283 283 282 282 282 282 282 282 282 282 282 282 283 283 283 283 284 284 284 284 284 284 284 284 284 285 284 284 285 286 286 286 287 286 286 286 285 286
285 285 283 282 284 277 276 269 274 273 270 275 277 279 281 276 276 278 280 281 282 284 283 283 283 283 283 282 281 281 281 281 280 280 280 280 280 280 280 279 280 280 280 280 281 281 282 282 282 282 282 282 283 283 283 283 284 283 283 283 283 282 282 283 282 281 282 282 282 282 282 283 283 283 283 284 284 284 284 284 284 284 284 284 284 284 284 284 285 285 285 285 285 286 286 286 285
284 283 282 276 273 271 271 267 273 271 272 277 277 278 279 280 281 282 282 281 281 283 284 285 284 283 283 281 281 281 280 280 280 280 280 280 279 279 279 279 279 279 280 280 280 280 281 281 282 282 281 281 282 283 283 283 283 283 283 283 283 283 283 283 283 282 282 283 283 283 283 283 284 283 284 284 284 284 284 284 284 284 284 284 285 285 285 285 285 284 284 284 284 284 284 284 284
284 283 278 272 268 260 263 264 262 267 272 276 277 278 278 278 281 280 281 281 281 282 282 284 285 284 283 282 281 280 280 279 280 280 279 280 280 280 279 279 279 279 279 280 280 281 281 281 281 281 281 281 282 282 282 282 282 282 283 283 283 283 283 283 283 283 283 284 284 284 284 283 283 283 283 284 284 284 284 284 284 284 284 284 284 284 284 284 285 284 285 284 284 284 284 284 284
284 282 285 282 273 266 270 265 272 276 274 274 275 274 270 274 279 278 280 280 280 280 281 283 283 282 281 280 280 279 279 279 279 279 280 280 280 280 280 280 279 279 279 280 279 279 280 281 281 281 281 281 281 281 282 282 282 282 282 283 283 283 283 283 283 283 283 283 284 284 284 284 283 283 283 283 283 283 283 284 284 283 284 283 283 283 284 284 283 283 282 283 283 284 284 284 284
281 281 283 279 280 279 277 270 266 265 270 270 272 275 275 279 279 280 278 279 279 280 281 283 281 280 280 280 280 280 279 280 279 279 279 279 279 280 280 280 279 279 279 279 279 279 280 280 280 281 281 281 281 281 281 282 282 282 282 282 283 284 284 284 284 284 283 283 283 282 282 281 282 281 282 282 283 283 283 282 283 282 282 282 281 281 281 282 282 281 281 281 281 283 282 282 282
282 283 279 281 282 283 273 271 269 270 267 274 267 276 279 279 280 278 278 279 279 279 280 281 281 280 280 280 280 279 279 279 279 279 279 279 279 279 279 280 279 280 279 279 280 279 280 281 281 281 281 280 281 281 281 281 282 282 283 284 284 284 284 283 283 283 283 283 283 281 280 280 280 281 282 282 281 281 280 280 280 280 280 280 280 280 280 280 280 279 279 280 280 281 281 281 281
283 278 282 283 282 282 279 274 270 264 269 273 268 274 277 276 276 278 278 279 279 279 279 280 280 279 279 280 280 280 280 280 279 279 279 279 279 280 280 280 280 279 279 279 280 280 279 280 281 281 281 282 282 282 283 284 284 284 284 284 284 284 283 283 283 282 282 282 282 282 281 281 280 280 280 281 279 279 279 280 279 279 279 279 279 279 278 279 279 279 278 279 279 279 279 279 279
282 282 283 284 277 277 278 271 270 268 267 269 270 274 275 277 281 277 279 279 280 279 279 279 280 279 280 280 280 280 279 279 279 279 279 279 280 280 280 280 280 280 281 280 281 282 282 281 281 282 283 283 284 285 285 285 284 283 283 282 281 281 281 280 280 280 280 280 280 280 280 280 279 279 280 279 279 279 278 278 277 277 278 278 277 277 278 278 278 278 278 278 278 278 278 278 278
285 285 283 283 281 274 274 278 272 273 267 266 271 270 278 278 278 280 281 282 281 280 279 280 281 281 281 280 280 280 280 280 280 280 280 280 280 280 280 281 282 283 283 283 283 283 283 282 281 281 281 281 281 281 281 281 280 280 280 279 279 279 279 279 279 280 280 280 280 280 279 279 279 279 278 278 278 278 278 277 278 278 277 277 277 277 277 277 277 277 277 277 277 277 277 277 277
283 283 279 282 277 279 278 276 274 276 265 268 270 273 275 276 278 280 281 281 282 281 281 281 282 281 281 281 281 281 281 281 280 280 280 281 281 282 283 283 283 283 284 283 281 280 281 281 280 280 281 281 282 281 281 280 279 279 279 278 278 278 278 278 278 278 278 278 278 279 278 278 279 279 279 279 279 278 278 278 277 278 277 277 277 277 277 277 276 276 276 276 277 277 276 277 277
284 285 282 284 278 277 275 277 276 268 274 271 268 275 281 279 280 279 280 280 283 283 283 283 283 282 282 282 282 282 281 281 281 281 281 281 281 282 282 282 282 281 281 282 282 281 281 282 282 281 279 278 279 279 279 278 279 279 278 278 278 277 277 277 278 278 278 277 277 277 277 277 277 277 278 278 278 278 278 277 277 277 276 276 277 277 277 277 276 276 276 278 277 277 276 276 276
Wind_Speed
6 5 3 0 3 1 1 5 1 2 3 0 1 1 0 0 0 3 2 3 1 1 1 2 2 2 1 1 1 3 2 3 5 3 0 2 2 3 5 5 3 2 7 6 8 8 8 10 12 12 13 12 14 14 12 12 12 11 11 11 10 10 11 11 11 10 10 10 9 9 8 7 7 7 6 6 6 6 5 5 7 9 10 11 12 13 14 14 14 13 12 12 12 12 12 12 12
4 4 2 0 0 1 0 2 3 3 6 3 0 1 1 2 1 2 1 2 2 0 1 1 1 0 3 3 1 0 2 7 6 1 4 3 3 4 6 6 2 7 7 6 7 7 7 8 10 12 12 12 12 14 13 13 12 11 11 10 10 10 11 12 11 10 10 9 9 8 8 7 7 7 7 7 6 6 6 5 6 8 9 10 11 12 13 13 13 12 12 12 12 12 12 12 12
3 5 2 3 3 4 2 3 1 1 4 2 3 5 1 0 2 3 7 4 3 1 4 2 1 0 1 1 1 2 2 1 2 2 3 3 1 1 4 7 4 4 7 7 7 7 6 7 10 11 12 12 12 14 13 13 12 12 11 11 10 10 11 12 12 11 10 9 9 8 8 7 7 7 7 7 6 6 6 5 7 8 8 9 11 10 11 12 11 10 10 11 11 11 11 11 11
2 2 1 2 2 3 1 4 5 4 3 3 2 2 1 1 3 5 5 8 7 2 1 0 0 1 1 2 1 1 3 2 3 2 1 1 1 3 4 6 5 4 4 6 7 7 6 8 10 11 12 12 13 12 13 13 12 12 11 10 10 10 11 11 11 10 10 10 9 9 8 7 8 7 8 7 7 6 6 6 7 8 9 8 10 9 11 12 10 9 9 9 10 10 10 10 10
1 1 2 2 3 1 3 1 4 3 2 5 2 4 3 4 3 3 4 2 6 1 1 1 0 0 1 0 1 0 0 3 2 2 2 2 2 3 4 5 4 6 6 6 7 7 6 11 10 11 12 14 15 14 12 12 12 12 11 11 11 11 11 10 10 9 9 9 9 8 8 8 8 7 7 7 8 7 7 6 8 8 8 7 8 8 11 11 8 8 8 9 9 10 10 10 9
2 1 4 2 0 2 5 2 3 1 3 5 0 0 1 4 3 1 7 8 2 1 1 1 0 1 1 0 3 0 2 3 1 1 1 2 5 0 4 4 5 6 5 5 6 6 6 11 11 11 13 15 16 14 12 13 13 13 12 12 11 12 12 11 10 9 9 8 8 8 8 7 7 6 6 7 7 7 7 8 9 9 8 8 7 8 9 7 6 5 6 7 8 9 9 9 9
1 3 4 3 2 4 3 4 1 2 1 5 1 2 3 3 6 3 5 5 1 2 0 0 0 0 1 3 2 4 2 0 0 0 2 4 4 1 4 5 5 6 4 5 4 5 6 11 12 11 12 13 15 14 12 12 14 14 13 13 12 13 12 11 11 10 10 9 8 7 7 6 6 5 6 7 7 7 8 9 9 9 8 7 7 8 7 7 6 5 4 6 8 8 8 8 8
1 1 2 2 1 4 3 2 1 3 1 4 1 3 4 2 1 1 3 1 4 2 1 1 0 2 2 3 1 2 2 2 2 3 4 4 1 1 3 4 6 4 4 3 4 4 6 11 12 12 12 13 13 13 13 13 14 15 13 14 13 13 12 12 10 10 10 9 8 8 6 6 5 6 7 8 8 8 9 9 10 9 7 7 6 6 6 6 6 5 6 7 9 8 8 8 8
5 6 1 3 2 3 3 1 1 3 6 2 6 6 7 3 3 0 1 1 2 0 3 1 1 2 2 5 2 3 3 2 4 4 2 1 4 3 3 4 6 5 5 4 4 4 4 9 11 12 12 13 13 13 13 15 15 16 14 14 14 13 13 12 11 9 10 9 8 7 7 6 6 7 7 8 8 9 9 9 9 8 7 7 8 7 5 5 4 3 3 9 9 9 9 8 8
2 2 2 2 3 1 2 1 2 2 1 2 3 5 2 1 0 1 1 2 1 1 1 1 0 1 1 4 4 3 1 3 5 1 3 1 3 2 3 3 4 7 6 6 4 5 5 8 11 12 12 12 13 13 14 14 14 15 15 13 14 13 12 12 11 9 10 9 7 7 7 6 7 7 8 8 8 9 9 9 8 6 6 6 6 5 3 2 2 3 8 8 9 9 8 8 7
2 5 2 3 4 2 1 2 3 5 2 4 7 8 8 1 0 0 1 3 0 1 7 3 1 1 1 2 4 3 4 4 2 0 0 0 2 4 4 1 3 5 7 6 5 4 4 5 10 11 11 12 12 12 12 12 13 13 14 13 12 12 11 11 10 9 9 8 7 8 7 7 7 8 8 9 9 8 7 8 8 7 6 5 4 3 2 3 5 5 10 8 9 8 8 8 7
1 2 3 2 1 3 2 1 3 7 8 2 1 2 1 2 1 1 1 2 2 3 2 2 2 3 0 2 2 1 6 6 2 0 1 0 3 3 4 2 1 3 3 4 4 4 3 3 5 7 10 10 10 11 11 11 12 11 12 12 12 11 11 10 10 9 9 8 7 7 6 7 8 9 8 9 9 8 7 7 6 6 5 5 4 3 3 5 7 9 8 8 8 8 7 6 6
4 1 5 5 1 0 1 0 2 4 4 1 1 1 1 1 1 2 3 1 0 3 4 4 1 1 2 1 5 6 4 6 5 4 3 2 1 0 1 1 1 1 2 2 4 4 3 3 4 4 6 8 9 9 9 10 10 10 11 11 11 11 10 10 9 8 8 8 7 6 6 6 6 7 7 9 8 7 7 6 6 6 5 5 5 4 5 5 8 8 7 7 7 7 6 5 4
3 3 2 0 1 2 2 1 0 0 2 1 2 3 1 0 2 2 2 1 2 0 2 1 1 1 1 2 6 3 4 3 7 4 3 2 3 3 2 1 1 1 1 2 4 3 4 4 4 5 5 5 4 6 7 9 9 9 10 10 10 10 10 9 8 8 7 7 5 4 4 6 6 6 7 7 6 6 6 5 6 5 5 5 4 4 4 5 7 7 7 6 6 6 5 4 4
0 2 6 4 1 0 2 1 0 2 1 0 0 3 5 3 1 2 2 0 3 3 3 0 1 1 2 2 7 3 3 6 6 5 1 2 3 3 2 1 1 0 1 3 3 4 5 4 5 5 5 5 5 4 3 5 9 8 9 9 9 9 9 9 7 7 6 5 4 3 4 5 6 7 7 7 7 7 5 6 5 5 5 5 4 4 4 5 7 6 6 5 5 4 4 4 3
5 5 4 1 0 0 1 1 1 2 2 1 2 3 1 3 0 1 2 1 2 1 1 1 0 1 0 1 6 4 4 7 5 4 1 2 2 1 2 1 1 1 2 3 4 4 4 4 4 5 6 6 5 5 4 4 6 8 8 9 9 9 9 8 8 7 6 5 4 4 6 5 5 6 8 5 8 8 7 5 5 5 5 5 4 4 3 5 7 6 5 4 5 3 3 4 4
1 3 1 4 1 1 1 1 3 1 3 3 5 4 4 4 2 2 1 0 3 2 3 1 2 1 3 4 3 4 7 5 5 2 2 0 3 2 2 1 1 1 0 1 2 2 3 4 5 5 6 7 6 5 5 5 5 8 7 8 10 10 9 8 7 7 6 4 4 4 6 4 3 3 4 4 6 5 7 6 4 5 5 4 4 3 3 5 6 5 4 5 4 6 7 6 7
2 2 3 0 2 2 4 4 7 1 0 4 4 2 2 6 4 3 3 1 2 3 4 5 4 4 3 3 1 3 4 3 4 4 3 2 2 2 3 4 5 4 4 3 3 3 3 4 5 6 6 7 7 6 5 5 4 7 5 4 6 7 7 7 6 4 5 3 4 3 3 4 4 3 4 4 4 5 6 7 5 5 5 5 4 2 3 5 5 5 4 4 5 7 6 3 3
4 2 2 3 5 3 6 3 5 0 4 3 2 3 1 5 1 2 2 3 4 7 4 1 3 5 7 5 8 8 8 6 7 6 6 6 8 7 7 6 6 5 5 4 3 3 4 3 3 5 5 5 7 6 5 5 5 4 5 5 4 6 6 6 5 5 3 3 3 3 2 3 4 4 4 5 3 6 7 8 6 5 6 5 5 4 3 5 5 4 4 5 8 7 4 3 2
1 3 1 4 7 3 5 4 3 7 0 5 6 1 1 4 0 1 1 4 4 6 7 3 1 3 5 7 7 8 9 9 8 8 7 7 6 5 5 6 6 5 4 5 6 3 4 5 6 5 5 4 6 5 4 4 5 5 5 4 5 6 6 5 5 4 4 4 4 3 3 4 4 3 5 5 5 3 4 6 5 4 5 4 4 2 3 6 6 4 5 9 6 4 3 2 2
1 1 3 2 3 0 2 6 7 5 1 1 1 2 5 4 3 1 1 8 5 6 4 4 5 6 7 6 7 8 10 11 12 11 10 9 7 5 4 5 6 7 7 7 6 5 4 5 5 5 5 5 6 5 4 4 4 5 6 4 2 2 5 7 4 4 5 4 4 4 5 5 5 4 4 4 4 3 2 4 4 3 3 2 3 2 2 3 4 4 4 4 3 3 2 2 2
4 4 2 3 1 1 5 5 5 2 2 1 1 5 6 3 0 1 1 4 11 4 2 1 3 4 4 7 6 7 10 11 11 12 11 9 8 9 8 7 5 4 6 6 6 7 5 5 6 5 5 6 7 6 6 4 4 5 5 7 4 2 3 3 2 6 4 6 4 5 4 3 4 6 4 4 2 2 4 2 3 5 5 5 3 4 3 4 3 3 4 4 2 3 2 2 2
2 3 2 3 3 2 1 1 3 3 0 0 4 3 4 2 7 4 4 8 5 5 1 2 3 5 4 6 5 9 11 10 9 10 9 11 11 10 9 8 8 9 7 7 8 7 6 4 5 5 7 6 7 6 5 5 5 4 5 4 8 6 3 4 9 5 4 4 7 7 4 3 2 3 7 6 4 4 3 4 3 3 3 4 3 5 4 3 4 3 3 3 2 2 2 2 2
2 3 1 3 5 5 4 5 2 1 2 5 2 3 4 4 11 0 4 4 1 1 4 8 7 8 8 10 8 8 7 8 7 6 5 6 7 8 7 9 9 6 5 6 6 7 7 6 5 6 6 6 5 6 5 6 4 5 5 6 5 5 3 2 3 3 8 6 4 3 5 6 7 3 3 6 6 3 4 4 3 1 0 2 2 3 5 3 3 3 3 3 3 2 2 1 1
2 3 1 2 1 4 5 4 6 4 5 5 2 4 9 4 4 5 12 4 2 6 7 9 9 10 11 12 11 9 10 10 11 8 7 6 5 5 6 8 9 8 11 10 8 7 7 6 3 5 5 6 5 5 5 4 4 4 4 4 5 6 8 6 1 1 3 4 9 7 5 5 3 5 4 3 4 4 2 2 2 3 3 2 2 3 3 4 4 3 3 3 2 2 1 0 1
4 4 0 2 4 4 4 6 5 4 3 1 1 7 8 5 2 3 8 4 2 4 11 7 9 12 10 9 9 10 10 10 9 11 10 8 8 13 14 11 10 11 10 10 9 8 7 5 3 4 5 5 5 5 5 4 4 4 4 3 3 4 2 3 5 4 4 1 2 1 6 8 7 9 7 6 6 4 3 3 2 1 0 1 4 5 4 4 4 3 3 3 3 2 1 0 1
3 1 2 2 7 6 5 2 4 1 2 3 3 7 4 2 2 5 4 3 1 10 9 6 10 10 9 8 8 9 10 11 10 7 9 10 12 12 12 11 11 10 9 11 10 9 7 4 2 2 2 3 3 4 3 3 3 4 4 4 3 2 3 4 1 0 2 2 3 5 2 1 1 2 7 5 4 5 5 5 3 3 2 4 2 2 3 3 3 3 3 3 3 2 0 1 1
2 1 3 4 5 5 8 6 12 0 4 4 6 5 1 2 1 3 3 4 3 10 7 8 10 9 8 8 9 7 8 7 7 9 13 14 11 10 11 11 12 11 11 12 9 8 8 8 4 1 1 2 3 2 3 4 3 3 3 4 4 2 3 4 4 2 1 2 1 2 1 3 3 1 2 8 8 6 5 5 4 5 5 3 2 2 3 3 3 2 2 2 2 1 0 0 1
0 2 5 6 7 8 2 4 2 2 3 3 5 2 3 1 5 0 3 3 8 10 9 8 10 8 7 6 7 9 8 7 8 10 9 6 6 7 9 9 9 9 7 8 9 9 11 8 7 6 4 4 4 4 4 4 4 4 4 4 2 2 1 1 2 2 4 4 3 2 4 5 3 3 2 1 3 2 4 4 3 4 4 2 2 2 3 3 3 3 2 2 1 1 0 2 1
1 3 1 8 6 8 4 1 2 1 1 3 3 4 8 5 7 5 3 2 5 11 9 7 6 7 6 6 6 7 8 9 11 9 7 7 7 7 8 9 9 8 7 7 9 13 9 7 6 7 7 6 5 5 5 5 4 4 4 4 5 5 5 4 3 2 2 2 4 3 2 1 1 2 2 0 2 5 4 4 4 4 1 2 3 3 3 2 2 2 1 1 0 1 2 2 2
2 1 1 2 6 5 2 0 0 1 0 1 1 4 6 9 2 4 6 4 5 7 7 6 6 6 6 6 6 7 7 7 7 9 10 9 8 7 8 9 10 9 8 10 12 10 11 10 8 7 8 8 7 7 7 6 6 6 6 6 7 6 7 7 6 6 6 6 5 5 5 4 5 5 5 2 1 3 3 3 3 2 3 3 3 2 3 2 2 2 2 2 1 2 2 1 1
2 2 5 3 3 6 10 3 1 1 1 2 2 0 8 9 2 5 6 4 10 9 6 6 6 6 6 6 6 6 6 6 8 9 10 10 9 9 9 10 9 10 10 9 9 10 12 11 11 10 10 10 9 9 8 8 8 7 7 7 7 8 8 8 6 6 6 5 5 6 7 7 7 6 5 4 2 3 2 1 1 3 3 3 3 4 4 4 2 2 2 2 2 4 2 3 1
4 2 4 4 0 5 9 1 1 2 1 3 2 4 3 6 3 5 8 8 10 10 6 6 7 6 6 6 5 5 7 9 10 11 12 10 9 9 8 9 10 9 9 11 10 10 12 12 12 12 12 10 10 11 11 11 10 10 10 10 10 9 9 9 9 8 10 9 8 8 6 6 6 6 5 5 5 5 5 4 4 4 2 2 2 1 1 2 3 3 2 1 1 2 1 4 4
4 1 4 3 3 2 3 5 1 4 3 0 2 1 5 9 4 10 12 7 10 9 6 6 6 5 5 5 5 6 7 8 11 11 12 11 9 10 9 9 10 10 10 11 10 10 9 9 9 10 10 10 9 10 10 10 10 11 10 10 11 12 11 9 9 11 11 9 10 10 10 9 8 8 7 6 7 6 6 6 6 6 4 5 4 2 2 2 1 0 1 1 1 1 2 3 4
5 2 1 5 1 4 7 1 2 5 2 2 1 2 10 12 4 10 9 6 10 7 5 4 4 4 4 5 5 6 7 9 9 8 9 9 11 10 9 10 10 11 10 11 11 11 10 10 10 12 11 10 9 9 9 9 10 11 10 11 12 11 10 10 10 12 9 9 10 10 10 9 9 9 8 8 7 7 7 6 5 4 4 4 4 4 4 4 5 5 5 3 2 1 2 2 3
4 4 4 3 3 4 4 6 4 1 5 5 2 6 8 9 4 6 6 6 9 5 4 4 4 4 4 5 5 6 6 7 6 6 7 8 8 9 9 8 9 9 10 11 13 13 12 12 9 11 11 8 7 8 7 8 9 9 10 10 12 10 10 10 12 11 10 11 10 11 11 11 10 10 10 9 8 8 7 5 3 4 5 4 4 5 3 2 2 3 3 3 4 2 2 3 1
2 3 2 4 4 6 3 2 5 0 2 6 5 5 5 8 2 3 3 3 7 5 5 4 3 4 4 4 5 5 6 5 4 4 6 8 9 9 8 8 9 11 13 13 13 13 12 10 12 13 9 10 10 9 9 8 8 8 10 11 9 8 9 10 11 10 10 9 10 11 12 11 11 11 10 9 9 8 7 6 7 7 5 5 5 3 2 2 2 3 2 2 1 2 2 2 1
1 1 1 6 3 8 3 2 2 1 3 3 0 3 7 6 3 5 3 4 6 3 3 4 3 3 3 5 5 5 3 2 6 9 10 9 9 10 9 9 12 14 12 12 12 11 10 12 12 10 10 11 11 9 7 9 7 6 9 8 10 9 10 11 10 10 9 11 13 13 12 12 12 12 11 11 10 10 9 8 7 7 6 5 4 4 4 3 2 2 2 2 1 2 1 0 1
1 4 2 3 8 4 7 2 3 1 2 8 1 2 8 3 3 5 5 5 3 3 2 1 3 3 3 4 4 4 5 5 7 7 7 8 8 9 8 9 9 8 9 10 9 11 12 11 10 9 10 10 9 8 9 9 7 7 8 6 8 8 8 7 9 8 9 11 12 12 11 11 11 11 11 10 9 10 9 8 7 6 6 5 6 6 5 5 3 2 2 1 1 1 1 1 2
4 1 1 9 2 1 5 1 2 2 1 2 2 5 10 1 4 5 4 2 2 3 4 5 4 4 4 4 4 4 5 6 7 7 7 7 7 8 9 10 9 8 9 10 10 11 9 10 10 10 10 10 9 9 8 6 7 7 9 10 10 11 7 6 10 11 12 14 13 11 12 11 11 11 12 11 10 10 9 9 7 8 8 7 6 7 6 5 4 3 2 2 1 2 3 2 1
2 5 5 4 2 4 7 4 2 1 0 1 1 4 6 7 5 2 3 2 4 3 4 5 4 4 3 2 5 5 4 4 5 7 8 8 9 10 9 7 6 9 9 9 9 8 7 9 9 10 10 10 9 10 9 6 7 8 6 8 7 8 11 12 12 12 10 9 11 13 11 10 11 11 11 12 10 10 10 9 9 8 8 8 7 8 7 6 5 4 4 3 2 1 1 1 1
2 6 10 8 6 6 4 3 4 7 3 3 2 4 4 3 2 3 2 1 2 2 4 3 3 4 3 5 4 3 4 3 4 5 6 5 6 6 7 8 9 9 10 8 6 6 6 8 10 10 10 10 10 9 9 11 11 11 11 12 12 11 12 12 11 9 10 11 9 5 11 11 11 11 11 11 11 10 11 10 9 10 9 9 8 7 7 8 8 8 7 4 4 2 1 1 2
1 4 7 10 4 3 2 0 2 1 0 1 2 0 8 3 3 3 2 3 3 1 3 1 2 2 3 3 3 3 4 5 5 5 5 7 7 7 8 9 8 9 8 6 6 6 7 9 10 11 11 10 9 9 9 10 13 12 13 12 10 10 10 7 4 5 6 6 7 10 9 11 11 12 11 11 11 11 10 11 10 9 9 9 8 9 9 8 7 6 6 7 6 4 2 2 3
3 1 3 3 4 4 4 4 4 3 1 3 1 2 6 5 2 1 3 3 1 2 0 1 1 1 2 3 3 3 4 3 3 4 5 5 5 6 8 7 7 7 5 5 5 5 9 10 11 12 10 11 9 8 11 10 12 11 13 12 11 11 10 7 6 6 6 6 10 10 9 9 10 11 11 11 11 11 10 11 10 10 10 9 8 8 8 7 7 7 6 5 5 6 4 3 4
2 1 3 4 5 4 5 4 4 0 1 6 3 1 1 4 2 1 2 3 1 3 2 3 2 1 1 2 2 3 3 3 3 3 4 4 4 5 4 6 4 5 5 4 4 4 6 9 11 12 13 11 9 10 12 12 11 11 11 10 12 8 7 6 5 7 8 8 11 9 10 9 9 10 10 10 10 10 10 9 10 10 10 9 8 8 8 8 8 8 9 9 7 6 5 4 3
1 4 7 6 6 6 4 5 3 1 1 5 4 3 3 7 1 0 2 3 4 5 6 5 4 3 2 2 2 2 2 3 3 2 2 3 3 3 3 3 4 4 4 4 4 4 6 8 12 15 12 9 8 10 12 12 11 10 12 11 12 8 7 7 7 9 8 7 10 9 8 9 8 9 9 10 10 10 10 9 9 10 9 8 8 8 9 10 9 8 7 6 6 7 5 5 4
6 3 5 5 8 4 3 6 2 2 3 7 8 8 6 7 4 6 6 7 4 6 2 3 3 3 2 2 2 2 2 2 1 2 2 2 1 2 2 3 3 4 4 4 4 5 5 9 11 15 9 8 9 10 12 12 10 10 11 11 11 10 8 8 10 10 8 10 10 9 8 8 8 8 8 9 10 10 9 9 9 8 7 7 8 9 8 7 7 7 7 7 7 7 7 6 6
3 1 2 2 1 6 2 3 4 1 6 3 3 2 0 7 4 5 5 1 4 12 12 11 9 8 6 4 3 3 2 1 0 1 1 1 3 3 2 4 4 4 4 4 4 4 6 7 11 14 9 9 8 9 11 10 10 10 10 10 11 9 8 9 10 9 8 8 8 8 6 7 7 7 8 8 9 9 8 8 8 8 8 8 9 6 7 7 6 6 7 7 6 6 7 7 5
4 4 4 1 4 6 3 2 2 5 4 1 3 1 2 11 6 2 5 5 3 5 3 13 13 9 8 5 4 3 3 2 1 1 0 1 2 2 3 3 4 4 4 4 5 5 5 7 9 14 9 7 8 8 11 10 10 9 9 9 9 8 9 9 8 8 6 7 7 8 8 8 7 8 8 9 9 9 7 8 8 8 8 8 8 8 8 8 8 6 6 6 6 7 6 6 7
5 5 4 5 1 2 3 6 1 5 4 3 1 1 4 2 6 2 4 3 2 3 4 3 10 13 11 7 5 4 3 3 2 2 1 2 1 1 1 3 3 3 4 4 4 5 5 7 7 12 8 6 6 8 9 10 9 8 7 8 8 7 8 7 7 7 6 6 5 6 7 6 6 6 6 7 6 7 7 6 6 7 7 7 8 8 7 7 7 7 7 7 7 6 6 6 6
7 2 7 7 8 4 4 3 4 6 4 3 4 1 6 1 3 1 5 4 3 4 5 4 4 3 4 4 4 4 3 3 3 3 3 3 3 2 2 2 3 3 4 4 4 4 5 6 8 10 9 6 6 7 7 9 7 6 6 7 7 6 7 7 7 6 5 6 6 7 6 5 6 6 6 5 6 7 7 8 8 8 8 7 7 7 7 7 7 6 6 5 6 6 7 7 7
1 2 5 6 6 6 5 3 3 1 3 4 2 5 4 4 0 2 2 1 2 2 4 7 7 5 5 5 6 6 5 4 4 4 3 3 3 2 2 2 3 3 4 4 4 4 5 6 6 7 8 5 6 6 6 7 6 6 6 7 7 7 6 6 6 5 5 5 5 6 6 5 5 5 5 5 6 6 7 8 8 8 7 7 7 7 7 7 6 6 6 6 7 5 7 7 6
3 4 4 5 1 4 2 2 2 1 3 9 2 6 5 2 0 2 3 2 2 2 4 7 8 7 6 7 7 5 5 5 5 5 4 4 3 3 3 3 3 3 4 4 4 4 5 6 7 7 6 5 5 5 5 5 5 6 6 6 6 6 7 7 6 6 5 5 5 5 5 4 4 4 4 3 5 4 4 5 5 6 6 6 6 6 5 5 5 4 5 5 6 5 5 5 6
8 2 7 2 2 4 4 3 2 4 4 8 3 6 4 1 8 0 1 1 1 3 4 5 5 6 8 8 7 7 7 7 5 4 4 4 4 4 4 3 3 4 4 4 4 3 4 4 5 7 6 7 4 4 5 4 5 5 5 5 5 5 5 5 5 5 5 6 5 5 4 5 4 3 3 3 4 5 4 5 5 5 5 5 5 5 5 6 5 6 5 4 4 4 5 4 4
2 1 2 2 2 1 2 4 3 3 4 6 4 1 5 7 7 2 5 6 8 6 5 6 9 10 11 8 8 7 5 4 6 7 6 5 5 5 4 4 4 3 3 4 3 3 3 4 4 4 6 5 5 4 4 3 3 4 3 4 4 4 4 4 4 4 4 4 4 4 4 3 3 4 5 5 5 4 4 4 4 4 4 4 4 4 4 5 4 6 6 6 6 5 6 7 6
2 2 2 0 2 2 4 6 3 3 6 3 9 2 12 5 5 10 8 12 10 9 8 13 16 14 11 9 9 10 9 9 9 7 6 6 5 5 5 5 5 5 4 4 4 3 4 4 4 4 4 4 4 4 4 5 4 4 4 4 4 4 3 4 4 4 6 5 4 5 5 5 5 4 4 4 5 5 6 6 5 5 5 4 4 4 4 4 5 4 5 6 6 6 7 7 8
2 2 0 0 0 2 3 1 3 4 4 5 6 10 5 2 4 6 6 7 12 16 16 13 12 11 10 11 13 11 10 10 8 8 7 7 6 6 5 4 4 4 3 4 4 4 4 4 4 4 6 4 4 3 4 4 4 4 6 6 5 5 5 3 4 4 5 4 4 4 4 4 4 6 5 6 6 6 6 6 7 7 7 7 7 8 6 6 6 6 5 5 5 6 7 7 7
7 9 8 9 5 1 1 9 3 1 3 6 2 14 8 3 2 2 2 4 8 13 14 14 14 14 15 14 12 11 10 9 9 8 7 6 6 5 5 4 3 4 4 4 4 3 4 4 3 3 3 3 4 4 4 4 4 4 5 4 4 4 3 4 5 5 5 4 4 5 4 4 5 4 5 5 6 5 5 6 6 6 6 6 6 6 7 6 7 8 7 5 7 7 7 8 7
Wind_Direction
326 345 319 334 66 114 49 1 152 334 61 7 0 16 174 136 249 357 253 332 359 252 204 327 139 101 201 217 185 199 204 123 210 112 345 238 227 227 213 218 297 174 166 167 174 178 184 188 183 180 172 177 165 172 169 169 167 165 156 160 168 163 165 161 156 149 148 146 147 142 139 136 135 130 128 121 116 110 104 106 109 115 117 111 104 98 93 83 82 75 69 64 58 54 50 47 44
326 339 20 165 47 61 246 139 95 352 40 60 223 88 250 277 26 219 258 193 210 277 285 259 280 63 33 59 165 123 283 222 169 198 279 239 266 265 203 193 181 171 162 165 173 177 180 187 189 181 175 175 171 174 172 171 171 169 163 166 168 171 170 163 159 155 155 152 153 150 147 146 140 136 136 132 126 123 122 120 118 122 120 114 105 100 93 89 80 73 67 64 59 54 50 44 38
338 6 26 33 31 71 101 32 291 49 83 63 277 204 327 8 227 259 227 217 227 280 289 272 168 136 76 13 3 128 280 310 294 279 242 323 349 277 169 175 172 174 163 164 169 177 182 184 190 182 178 176 177 178 177 173 173 171 169 171 172 179 176 168 164 161 163 161 158 161 155 153 146 147 143 138 136 132 131 130 125 125 123 117 107 98 93 92 84 75 66 63 60 55 52 48 42
41 41 116 61 262 34 55 27 83 122 108 194 317 290 185 163 254 225 251 254 273 325 328 5 6 214 138 3 235 44 287 337 197 167 307 323 196 273 174 155 161 152 153 168 172 175 181 187 186 185 179 176 181 180 178 176 177 174 173 177 174 187 180 174 171 167 168 167 164 162 161 163 154 152 153 149 141 138 135 136 130 126 122 119 107 108 96 79 75 71 65 63 61 56 49 45 41
43 2 83 106 112 345 104 117 134 107 96 206 78 273 263 220 258 278 271 263 288 196 50 202 63 300 176 150 172 115 249 241 315 206 261 266 307 266 161 138 140 151 167 175 172 176 183 185 187 187 179 179 185 184 179 180 180 176 177 179 180 189 183 179 176 176 176 173 168 170 169 168 164 163 158 157 151 148 138 136 127 127 128 119 114 101 88 84 73 69 70 68 62 54 46 39 35
57 46 9 85 35 166 52 62 34 32 214 151 170 294 244 237 225 250 279 296 267 167 178 66 202 338 346 260 184 196 213 32 207 273 209 321 325 240 160 138 142 158 168 175 176 174 182 187 188 188 183 182 188 186 178 183 183 179 177 179 183 191 187 181 181 185 183 181 180 182 180 177 171 166 166 154 159 149 136 134 128 127 133 131 116 98 88 88 100 89 78 79 72 63 51 40 30
293 48 357 25 39 49 151 123 185 193 280 163 234 256 261 290 226 352 329 353 157 94 216 170 77 20 34 312 327 245 189 94 103 251 166 296 322 180 149 139 142 161 167 177 177 178 181 188 189 191 186 183 190 187 181 180 189 180 177 182 185 193 189 184 187 190 190 186 192 194 190 184 181 157 162 156 151 148 144 139 134 134 139 148 117 97 101 114 122 97 97 94 84 70 56 40 30
84 128 317 111 306 46 46 159 235 166 356 184 249 258 277 251 234 187 284 78 320 25 344 240 273 119 256 67 356 277 328 207 274 307 283 290 164 178 155 142 143 165 170 171 180 180 186 190 191 193 192 185 189 188 183 185 190 186 178 181 186 194 191 191 192 194 193 195 199 202 193 200 175 162 160 159 158 156 149 144 139 141 148 136 134 111 79 68 95 100 117 104 88 74 55 39 28
2 89 252 69 46 30 63 99 266 249 288 290 275 226 275 275 188 150 309 243 315 250 313 328 252 41 252 349 217 262 292 310 300 287 327 85 132 176 146 158 156 161 172 173 175 177 186 197 195 195 195 190 191 190 187 189 193 190 182 182 185 194 193 195 195 198 199 200 204 207 200 202 167 172 167 166 165 159 151 143 137 131 116 99 90 84 74 59 35 16 64 100 84 69 56 37 28
40 41 313 110 135 38 11 289 81 189 232 235 260 282 252 235 231 172 241 333 217 309 277 292 190 295 322 303 312 8 22 341 296 70 13 73 138 136 146 175 166 161 168 178 177 179 189 197 199 200 199 195 194 193 191 192 195 194 188 186 186 193 196 196 197 198 203 205 210 211 208 200 182 180 176 172 175 161 151 148 138 131 112 99 87 84 83 64 3 333 97 88 78 69 55 40 28
346 16 135 76 27 92 157 248 274 313 275 309 287 248 246 247 109 286 189 265 356 231 317 176 35 241 40 276 226 261 298 319 335 305 18 20 121 140 163 156 161 172 171 179 182 177 185 198 204 204 203 202 198 198 194 194 196 196 192 189 190 191 198 197 199 198 202 205 209 214 212 203 193 187 183 178 174 164 164 148 142 140 125 104 85 79 44 341 349 35 90 84 75 64 56 45 28
326 23 8 102 127 151 233 157 285 284 305 335 67 357 176 140 96 339 285 331 356 335 242 119 334 146 39 336 306 294 315 3 313 273 260 247 136 170 163 187 154 166 175 175 172 184 187 198 203 215 212 208 205 202 197 198 200 195 194 192 193 193 198 201 200 199 200 204 206 207 209 203 196 196 188 182 172 171 170 158 154 141 124 109 97 64 31 40 68 86 83 81 73 65 48 45 30
100 85 73 78 197 146 167 292 257 302 335 319 18 60 182 117 220 215 257 241 55 9 340 206 128 85 300 208 263 320 22 329 318 289 304 320 112 2 91 98 70 133 139 171 177 188 191 197 204 210 217 218 214 209 202 200 203 198 195 195 196 195 199 202 202 204 204 207 210 207 205 191 195 195 189 182 173 174 174 163 149 138 123 112 98 81 71 69 90 86 83 74 71 61 55 44 34
110 184 127 92 58 119 152 241 349 6 297 249 265 290 338 212 226 201 130 330 294 84 246 259 130 147 275 22 317 340 275 294 321 323 320 342 28 42 39 20 49 113 118 161 198 193 197 199 200 205 210 216 218 217 215 203 204 202 198 197 199 199 199 202 203 205 211 214 216 208 196 182 182 184 183 175 171 180 183 151 138 139 133 117 101 92 86 94 101 96 87 80 71 62 58 46 30
108 151 81 117 54 120 242 96 201 144 240 334 276 350 356 260 111 126 177 136 289 209 307 198 213 81 252 351 288 257 270 304 317 321 7 44 31 47 38 72 65 78 194 177 199 201 206 199 202 203 206 207 211 207 207 213 206 209 200 198 201 202 200 202 204 206 209 215 212 203 179 172 170 173 173 175 173 167 153 136 137 129 133 117 112 104 114 109 108 104 95 86 78 72 59 51 27
137 88 73 98 253 99 264 145 142 93 261 209 312 256 294 302 122 13 281 174 260 322 31 240 319 235 262 168 248 259 272 313 307 325 44 47 7 19 26 40 74 74 197 193 199 206 201 197 202 203 205 207 203 198 198 199 205 209 208 199 198 201 201 201 200 203 202 201 205 189 176 165 167 172 179 174 170 150 137 137 134 126 130 132 123 127 129 125 120 113 105 95 91 80 71 51 31
98 79 36 28 306 165 260 156 150 217 253 272 298 39 22 297 293 227 171 97 289 290 6 253 221 33 201 220 273 300 298 302 331 348 28 8 10 334 344 345 347 306 75 236 259 221 214 207 204 203 206 207 204 198 196 196 192 199 211 208 197 197 199 199 201 199 195 195 183 187 172 156 157 167 185 174 165 140 142 133 123 122 112 106 107 134 156 141 131 124 114 106 99 85 68 49 19
52 65 110 331 204 129 203 179 188 172 257 291 353 47 6 319 333 294 346 328 48 311 305 286 295 257 232 259 316 297 302 358 347 344 329 321 14 335 321 337 359 322 348 345 319 303 244 229 217 210 205 206 202 198 198 193 183 187 198 204 202 194 198 198 196 191 188 182 178 166 183 157 155 150 166 171 161 143 144 138 137 129 120 98 84 137 176 159 148 132 126 120 105 88 69 47 19
87 135 90 235 184 239 157 202 208 122 278 251 269 290 183 248 22 296 9 299 351 337 295 274 278 312 334 337 334 347 348 7 10 11 343 340 358 351 346 341 337 331 326 334 303 263 259 241 233 231 221 207 206 204 196 188 187 176 190 195 199 193 192 198 194 183 172 175 163 166 163 159 154 150 158 158 167 162 154 151 150 143 136 126 171 173 164 160 154 147 135 122 95 74 58 44 31
206 114 237 253 208 243 221 183 223 203 302 308 316 331 140 255 150 292 301 279 319 286 294 337 289 286 306 293 331 335 360 3 18 17 10 0 1 351 339 338 321 308 290 286 281 254 221 231 214 214 218 212 211 212 200 185 184 175 181 184 189 186 188 195 196 190 187 175 173 161 175 165 155 155 145 143 138 152 156 144 146 153 103 158 150 128 141 140 154 141 111 93 75 71 68 37 28
257 90 181 231 200 110 264 190 237 240 164 268 280 299 322 295 214 44 254 342 292 261 224 222 290 305 299 326 356 7 18 21 18 23 21 10 1 3 345 317 304 295 287 290 296 277 239 226 230 210 195 200 206 210 207 198 177 175 186 192 182 194 176 176 184 196 175 183 164 171 174 170 160 145 126 131 143 130 126 153 132 104 127 124 115 106 86 114 98 80 79 70 77 85 68 35 25
111 206 196 161 123 253 248 207 209 172 212 193 326 341 274 311 177 168 117 270 278 299 39 187 234 253 324 5 352 27 28 28 21 23 19 14 6 353 345 341 324 308 313 309 292 285 250 225 215 210 195 199 195 197 200 193 173 177 177 180 188 222 209 166 175 175 194 174 175 172 164 151 166 149 135 134 107 136 134 143 123 134 146 160 146 133 97 108 95 101 111 110 88 82 85 78 37
225 312 260 205 189 248 268 239 203 146 49 279 310 254 333 23 294 255 235 225 253 59 303 31 57 35 73 75 36 28 26 24 20 16 10 8 360 354 350 340 337 337 333 307 301 281 264 230 218 205 199 194 197 189 187 185 192 176 162 163 175 198 258 238 184 178 174 189 178 161 165 159 151 189 163 152 157 158 161 150 154 142 145 144 142 142 124 106 125 127 120 122 108 95 83 61 56
122 248 339 312 172 214 255 284 49 346 136 256 199 346 301 315 309 14 281 275 324 329 26 70 73 61 51 55 38 43 33 25 13 10 11 7 356 344 341 338 333 320 323 319 307 301 285 254 216 208 209 191 191 181 183 185 178 173 174 161 170 143 181 231 346 266 174 163 161 172 184 167 157 157 176 169 169 156 183 175 129 99 52 84 75 116 135 126 121 123 126 117 119 99 111 47 45
161 271 245 261 145 243 280 275 300 284 257 261 324 292 263 220 238 7 279 33 26 27 52 58 57 53 46 48 36 29 29 19 13 359 5 10 356 335 353 351 347 344 352 343 327 315 295 272 227 207 204 194 183 178 186 173 161 159 156 168 183 189 199 255 246 88 309 197 168 173 173 159 155 169 168 161 142 170 124 105 121 151 147 125 115 112 145 154 144 146 152 150 143 144 105 54 36
191 220 146 292 288 290 278 303 261 247 264 181 340 258 270 271 248 245 297 46 55 66 59 49 58 54 46 45 38 32 27 21 8 12 0 346 356 8 7 360 350 0 345 331 338 331 316 303 264 214 197 190 176 174 179 163 156 152 139 140 139 144 195 220 218 216 170 102 331 138 180 177 185 172 182 157 155 151 127 79 69 55 36 143 166 178 171 160 169 148 145 152 162 165 184 41 49
165 217 216 283 277 329 309 251 293 117 232 189 234 279 295 352 50 284 33 352 153 64 60 43 62 59 46 44 35 31 31 21 10 344 10 11 12 12 354 355 2 348 342 351 348 341 327 337 343 317 210 188 163 173 161 147 128 130 112 110 113 114 115 114 61 49 306 266 203 164 186 155 112 284 150 142 134 157 160 147 158 139 166 202 212 187 116 158 152 170 177 175 181 179 163 71 62
64 202 314 288 308 272 255 292 277 2 294 188 200 257 318 292 103 215 2 339 64 83 54 51 55 52 44 38 40 26 34 18 10 18 20 11 6 356 354 358 347 347 357 353 348 337 352 6 350 41 112 138 124 104 116 118 103 108 105 93 88 75 88 59 40 32 344 324 54 69 68 168 146 155 252 169 180 172 156 165 165 179 207 194 173 148 138 125 137 118 108 113 114 120 112 58 91
105 41 325 299 344 333 275 241 313 154 260 136 162 314 288 124 222 169 344 34 65 73 61 47 49 46 40 35 36 34 26 13 17 26 15 4 352 354 356 353 348 348 351 348 343 360 11 2 21 22 67 84 81 79 80 78 91 93 97 87 81 108 95 96 188 229 234 192 205 194 163 168 166 157 269 148 98 98 123 134 151 192 222 140 123 119 108 100 99 104 75 77 76 82 26 313 12
91 32 78 326 359 319 313 66 12 112 258 136 164 288 277 261 249 315 323 78 87 62 55 47 45 39 36 33 33 33 24 21 22 18 5 0 358 357 2 351 354 359 349 352 3 16 4 12 21 34 37 58 82 87 81 80 80 81 99 137 163 188 202 213 236 278 279 356 23 36 38 48 104 105 135 92 143 135 135 157 156 205 95 90 99 114 120 124 128 130 128 99 14 288 269 303 352
253 256 70 272 2 277 272 101 269 4 107 184 109 212 284 272 354 341 330 349 99 76 54 47 41 37 33 27 28 31 25 25 20 10 6 2 358 0 4 356 1 4 5 10 16 6 17 19 20 42 39 50 51 54 62 60 51 51 45 40 37 28 33 37 28 36 33 24 35 34 36 39 23 23 22 34 55 125 138 147 182 133 118 121 125 125 135 132 130 155 139 175 280 302 318 330 347
11 22 297 327 170 277 303 324 164 156 358 29 110 196 243 271 328 0 346 41 86 78 61 47 41 37 31 26 26 24 20 15 18 18 10 359 2 1 4 1 359 9 15 8 13 16 27 23 24 40 41 51 55 60 63 64 63 60 57 46 45 36 40 40 41 40 44 36 44 44 36 38 33 30 33 29 16 3 14 11 37 74 110 128 130 138 136 154 140 143 189 169 220 272 312 302 16
353 170 272 275 2 267 334 351 321 356 97 18 136 240 326 308 154 29 15 61 77 90 62 46 41 34 30 27 23 19 17 15 17 14 6 358 359 2 1 2 6 7 13 17 17 19 29 23 26 35 37 41 54 63 68 69 69 66 63 60 59 56 52 41 36 36 38 36 34 36 38 51 53 46 40 31 36 27 23 28 32 42 46 69 77 89 125 127 157 173 199 238 209 273 265 285 306
282 39 217 209 209 259 258 306 41 4 87 228 13 213 246 261 354 16 21 39 76 75 66 51 41 37 30 27 28 25 27 21 18 4 357 357 354 0 3 5 9 13 19 20 21 25 27 24 29 31 33 38 49 58 67 72 71 73 68 66 61 58 50 46 47 45 40 37 38 35 31 35 40 49 49 51 63 62 60 53 47 38 32 35 41 36 39 33 36 80 271 36 20 258 276 284 290
221 194 245 291 265 210 248 316 264 22 26 320 303 249 269 270 358 22 14 31 80 76 75 67 53 42 34 37 30 26 29 30 13 0 354 354 1 2 6 7 13 16 19 20 25 26 29 27 30 32 29 26 39 49 57 70 75 76 71 66 59 57 49 50 45 48 37 39 40 39 41 39 33 38 41 43 55 49 50 52 57 67 73 71 64 45 31 18 16 10 357 5 23 13 321 279 271
222 177 186 176 228 248 213 240 284 82 294 312 247 245 271 280 354 10 16 39 80 88 73 63 52 42 43 39 32 31 27 29 5 358 1 5 7 7 10 7 17 21 23 22 27 28 27 27 29 36 27 20 37 45 44 56 59 54 61 60 54 45 49 50 46 46 39 39 32 34 36 38 34 34 34 34 45 46 49 49 68 70 77 86 80 66 60 69 51 15 6 354 342 348 28 13 26
119 104 120 210 229 277 283 261 254 280 342 257 257 263 266 278 0 343 349 51 62 62 63 60 47 48 41 39 35 29 37 25 332 359 18 14 12 13 14 19 18 29 27 23 30 28 29 26 35 31 17 27 37 38 41 44 52 58 58 61 65 47 50 55 51 42 39 36 30 34 34 35 33 35 33 35 38 44 46 38 40 38 43 59 70 88 118 129 135 140 133 110 55 359 337 18 348
157 164 205 283 193 265 258 256 350 314 162 292 50 335 281 276 10 359 358 59 44 31 74 65 66 55 49 46 39 24 358 356 9 23 14 16 15 15 20 26 24 30 17 23 29 27 29 32 38 30 25 32 33 33 45 54 43 61 86 72 78 58 50 48 48 40 38 41 39 36 34 31 33 32 27 30 34 33 35 34 32 29 27 38 57 60 51 41 43 57 107 104 116 137 217 335 306
184 215 248 306 268 243 294 324 357 325 104 267 17 279 271 300 32 35 39 59 59 40 54 62 73 55 43 38 39 28 28 19 21 19 17 15 11 19 27 28 31 32 27 28 21 34 32 34 34 37 34 35 30 27 44 53 52 48 67 65 71 82 62 66 66 53 45 47 43 38 35 34 33 35 29 30 35 28 31 35 29 23 31 24 36 36 37 29 18 35 34 60 36 18 185 162 143
187 119 163 236 221 22 294 301 13 11 122 280 353 331 287 38 74 64 35 58 74 57 61 60 56 60 50 44 36 31 22 16 20 12 12 8 15 22 27 29 24 29 32 28 26 33 36 36 36 39 40 38 36 29 40 44 63 74 70 76 71 71 67 58 62 47 41 41 38 35 36 32 34 37 31 31 34 32 29 27 20 26 26 24 33 39 32 26 12 18 39 42 85 14 6 338 318
261 192 203 234 201 230 191 248 315 289 44 85 349 309 302 256 227 110 73 71 74 21 44 48 39 48 55 64 55 44 42 14 16 16 15 14 20 22 23 21 21 38 34 31 26 31 41 43 44 48 47 45 43 39 42 49 57 55 61 71 70 64 44 40 41 35 36 41 43 35 28 32 37 40 35 34 34 33 31 29 29 24 28 22 26 34 31 21 14 13 24 33 33 57 350 347 317
311 230 202 219 210 222 273 333 17 12 336 352 61 341 298 298 293 168 166 37 33 0 59 34 28 33 36 44 35 26 32 34 33 22 13 11 21 18 25 25 33 35 34 21 19 29 44 52 54 55 54 48 44 43 47 59 59 62 54 51 48 51 50 38 37 31 32 38 44 42 42 38 39 43 39 38 36 33 33 29 30 31 29 26 26 30 29 23 19 15 1 6 12 359 341 21 312
68 271 199 223 200 161 151 100 81 314 139 347 32 217 276 307 249 195 141 92 68 12 49 26 23 40 38 38 33 26 21 18 18 26 19 25 14 28 31 30 23 36 23 7 16 32 48 56 58 58 58 53 45 46 49 65 67 65 71 74 72 69 76 56 51 42 55 49 55 48 45 41 39 42 39 39 38 36 37 34 32 33 33 29 24 33 29 20 8 14 1 17 10 1 26 343 326
233 249 138 136 146 169 189 162 169 217 268 302 12 147 267 290 287 59 145 112 66 76 2 21 55 40 46 48 37 29 24 22 24 18 16 16 19 29 36 21 24 22 5 13 24 28 53 58 62 61 59 57 48 50 58 56 75 73 75 74 71 69 68 73 52 53 51 51 54 45 44 42 39 40 39 37 37 36 36 36 34 34 35 28 27 32 27 9 13 11 17 14 18 23 11 5 329
220 222 136 144 153 169 127 115 153 122 46 284 310 267 309 263 262 7 151 174 230 241 213 213 216 210 86 60 41 41 32 26 28 25 16 8 21 26 26 35 13 22 22 32 29 36 56 64 68 67 61 59 52 55 64 58 67 71 75 76 76 65 69 66 65 53 50 41 54 40 43 38 38 37 39 37 36 36 36 35 33 35 35 28 28 28 24 20 19 11 8 9 10 9 17 357 14
252 124 92 84 76 70 108 106 121 323 51 267 233 183 229 277 271 244 279 287 244 207 212 212 214 204 173 116 76 65 39 36 26 16 3 10 9 22 19 37 39 29 26 35 37 50 62 71 71 69 61 59 58 62 67 65 65 70 72 71 78 70 61 61 58 52 46 39 51 42 37 37 32 33 30 33 33 32 35 33 35 35 32 29 29 28 24 23 16 12 6 1 5 14 4 16 10
137 117 65 19 37 25 25 64 87 58 273 246 212 202 174 286 250 213 159 218 181 150 220 227 224 222 205 194 165 142 96 49 24 10 4 3 349 28 31 68 58 46 39 54 64 65 73 76 80 73 69 69 65 69 72 71 71 69 75 74 75 75 66 64 60 50 43 42 44 37 36 32 32 32 26 28 30 25 28 31 31 31 32 31 29 25 23 19 14 9 1 6 15 13 1 358 359
128 86 122 44 342 7 36 343 35 132 264 260 5 219 75 202 290 271 232 226 187 166 181 187 192 193 193 185 190 167 153 125 37 49 39 26 50 41 55 74 63 58 55 60 62 62 69 77 85 84 69 69 70 74 76 76 77 74 77 77 76 73 71 66 64 59 49 53 48 44 35 38 34 31 30 28 24 20 23 24 24 25 26 23 25 21 21 19 13 13 9 8 3 2 3 2 357
80 83 46 79 268 29 321 20 245 200 208 198 358 351 333 248 222 208 202 212 227 226 210 184 178 182 187 190 182 181 167 163 142 167 207 68 108 115 94 80 73 58 63 64 65 70 70 71 80 88 73 67 71 74 80 81 79 77 81 81 81 77 74 73 70 68 54 57 49 45 37 36 27 28 24 25 21 19 20 21 20 21 19 19 17 18 14 14 14 12 12 4 3 7 358 354 354
119 144 136 86 39 52 258 278 240 303 297 274 309 163 248 252 287 227 217 239 224 264 260 219 182 176 178 178 174 171 175 168 184 191 204 213 195 153 125 110 94 95 84 77 74 77 78 81 80 86 83 69 73 74 78 80 77 81 82 84 83 82 77 74 69 68 59 59 55 54 49 42 36 33 19 23 11 10 21 21 19 21 21 17 17 15 12 10 10 10 4 6 357 348 352 354 345
202 122 144 182 143 157 265 202 256 256 229 272 272 67 232 116 224 195 237 267 293 259 233 190 144 136 145 152 159 161 170 197 196 211 205 202 216 204 155 133 132 125 107 94 91 88 91 89 87 91 88 71 75 79 79 79 80 78 78 80 83 81 81 74 68 65 59 55 46 52 47 39 36 21 20 5 4 12 12 15 15 16 14 12 11 11 9 6 6 2 4 358 351 347 349 347 344
143 159 81 95 224 141 228 203 163 240 329 329 189 202 192 184 59 267 290 301 19 21 123 133 135 137 142 151 176 187 190 196 198 207 224 234 228 219 186 156 154 135 123 114 102 109 103 101 97 95 100 97 89 87 82 88 87 83 78 79 77 78 79 80 75 66 60 60 53 56 45 40 29 18 8 10 5 10 8 7 9 10 4 4 5 4 3 4 358 360 353 355 352 345 347 344 338
209 109 196 208 156 118 78 22 67 78 52 255 135 304 289 312 34 358 333 64 18 75 133 149 157 165 170 187 191 193 197 197 204 206 207 216 217 216 195 176 158 143 129 126 129 132 122 118 110 105 102 99 96 96 96 92 90 86 80 81 82 81 81 81 84 75 69 57 58 48 48 32 28 23 11 13 3 6 8 6 3 0 359 358 359 359 357 353 351 351 347 346 345 339 340 332 328
98 175 228 163 152 119 125 226 331 68 206 270 82 218 277 69 276 41 16 130 219 188 177 174 165 172 187 201 195 197 201 203 206 211 213 211 208 192 191 194 178 159 147 141 145 154 130 124 124 118 116 113 114 106 103 105 102 97 95 88 78 82 85 82 77 76 60 59 45 44 38 33 23 358 13 360 10 9 9 6 5 354 355 358 357 351 351 348 348 350 342 338 325 325 327 319 321
144 190 210 118 233 192 328 86 273 265 257 270 290 276 257 191 241 104 248 204 210 195 192 172 190 195 202 199 204 209 210 209 212 212 207 210 204 198 185 183 190 176 170 162 158 151 132 121 123 122 125 128 130 123 120 100 96 99 96 87 84 74 72 78 77 79 79 68 58 46 43 31 13 13 13 6 9 6 4 1 357 349 352 354 353 348 345 342 347 343 339 335 330 336 334 327 321
51 87 53 356 110 168 130 199 193 141 272 3 285 2 265 182 221 182 204 201 188 174 186 204 200 194 191 197 200 201 202 205 204 203 202 199 203 195 187 180 180 180 174 177 162 153 142 142 127 124 114 116 109 103 103 95 89 97 89 77 56 68 59 64 63 61 50 47 36 32 25 19 13 10 11 4 9 4 359 358 355 353 350 350 348 342 340 337 339 339 329 330 324 330 327 323 318
76 91 324 356 25 230 98 3 143 195 193 207 267 285 271 261 201 174 216 194 184 179 192 199 198 196 202 203 199 198 201 202 203 200 193 192 192 190 190 194 190 181 170 163 164 157 160 140 129 129 121 111 101 110 97 86 81 67 70 57 45 47 42 39 58 43 48 36 27 28 25 9 7 18 9 7 6 1 360 356 353 354 355 351 351 348 348 344 341 333 328 316 315 322 318 314 314
170 169 203 177 127 176 221 259 64 98 147 236 179 258 279 266 168 198 201 218 191 203 189 190 196 197 200 202 202 198 199 206 203 196 185 185 185 183 191 194 189 173 183 172 181 161 160 149 136 117 95 121 124 75 64 71 68 69 66 62 56 60 52 46 55 37 36 27 17 18 11 13 22 1 11 0 2 355 355 353 354 349 348 347 343 344 341 344 338 334 329 328 325 321 314 309 310